When you browse on this site, cookies collect data to enhance your experience and personalize the content and advertising you see.
Visit our Privacy Policy to learn more. By continuing to use the site, you agree to this use of cookies and data.
  • In Latvia
  • List of Countries
  • For 7 days
  • Water Temperature
  • Weather Map
  • Weather Widgets
  • user-avatar
    Login

    Hourly Weather Reno

    Today, 18 October, Friday

    Time Temperature Precipitation Wind Pressure Humidity
    00:00 +6°C° 0 mm 1 mps 641 mmHg 57%
    01:00 +5°C° 0 mm 1 mps 641 mmHg 59%
    02:00 +5°C° 0 mm 1 mps 641 mmHg 59%
    03:00 +4°C° 0 mm 1 mps 641 mmHg 59%
    04:00 +4°C° 0 mm 1 mps 641 mmHg 60%
    05:00 +5°C° 0 mm 1 mps 642 mmHg 56%
    06:00 +5°C° 0 mm 1 mps 642 mmHg 53%
    07:00 +6°C° 0 mm 1 mps 642 mmHg 49%
    08:00 +8°C° 0 mm 1 mps 643 mmHg 42%
    09:00 +10°C° 0 mm 1 mps 643 mmHg 34%
    10:00 +13°C° 0 mm 1 mps 644 mmHg 27%
    11:00 +14°C° 0 mm 2 mps 644 mmHg 23%
    12:00 +14°C° 0 mm 3 mps 644 mmHg 20%
    13:00 +17°C° 0 mm 4 mps 644 mmHg 16%
    14:00 +17°C° 0 mm 4 mps 644 mmHg 18%
    15:00 +15°C° 0 mm 5 mps 643 mmHg 20%
    16:00 +15°C° 0 mm 6 mps 643 mmHg 23%
    17:00 +13°C° 0 mm 5 mps 643 mmHg 29%
    18:00 +11°C° 0 mm 4 mps 643 mmHg 35%
    19:00 +9°C° 0 mm 2 mps 642 mmHg 40%
    20:00 +8°C° 0 mm 2 mps 642 mmHg 43%
    21:00 +7°C° 0 mm 2 mps 642 mmHg 45%
    22:00 +7°C° 0 mm 2 mps 642 mmHg 47%
    23:00 +6°C° 0 mm 2 mps 642 mmHg 43%

    Tomorrow, 19 October, Saturday

    Time Temperature Precipitation Wind Pressure Humidity
    00:00 +6°C° 0 mm 2 mps 642 mmHg 39%
    01:00 +6°C° 0 mm 2 mps 642 mmHg 35%
    02:00 +6°C° 0 mm 2 mps 642 mmHg 34%
    03:00 +5°C° 0 mm 2 mps 642 mmHg 33%
    04:00 +5°C° 0 mm 2 mps 641 mmHg 31%
    05:00 +5°C° 0 mm 3 mps 642 mmHg 33%
    06:00 +5°C° 0 mm 3 mps 642 mmHg 34%
    07:00 +5°C° 0 mm 3 mps 642 mmHg 36%
    08:00 +7°C° 0 mm 5 mps 643 mmHg 39%
    09:00 +10°C° 0 mm 7 mps 643 mmHg 42%
    10:00 +12°C° 0 mm 9 mps 644 mmHg 45%
    11:00 +13°C° 0 mm 10 mps 644 mmHg 42%
    12:00 +13°C° 0 mm 11 mps 643 mmHg 39%
    13:00 +14°C° 0 mm 12 mps 643 mmHg 36%
    14:00 +13°C° 0 mm 11 mps 643 mmHg 39%
    15:00 +13°C° 0 mm 10 mps 643 mmHg 41%
    16:00 +12°C° 0 mm 9 mps 642 mmHg 43%
    17:00 +10°C° 0 mm 7 mps 643 mmHg 52%
    18:00 +8°C° 0 mm 5 mps 643 mmHg 61%
    19:00 +8°C° 0 mm 3 mps 643 mmHg 70%
    20:00 +7°C° 0 mm 3 mps 643 mmHg 73%
    21:00 +7°C° 0 mm 2 mps 643 mmHg 76%
    22:00 +6°C° 0 mm 2 mps 644 mmHg 79%
    23:00 +6°C° 0 mm 2 mps 643 mmHg 80%

    Day after tomorrow, 20 October, Sunday

    Time Temperature Precipitation Wind Pressure Humidity
    00:00 +6°C° 0 mm 1 mps 643 mmHg 80%
    01:00 +6°C° 0 mm 1 mps 643 mmHg 81%
    02:00 +6°C° 0 mm 1 mps 643 mmHg 81%
    03:00 +5°C° 0 mm 1 mps 643 mmHg 81%
    04:00 +5°C° 0 mm 1 mps 643 mmHg 82%
    05:00 +5°C° 0 mm 1 mps 643 mmHg 79%
    06:00 +5°C° 0 mm 0 mps 644 mmHg 76%
    07:00 +5°C° 0 mm 0 mps 644 mmHg 73%
    08:00 +7°C° 0 mm 0 mps 645 mmHg 64%
    09:00 +9°C° 0 mm 0 mps 645 mmHg 54%
    10:00 +12°C° 0 mm 1 mps 646 mmHg 45%
    11:00 +14°C° 0 mm 2 mps 646 mmHg 43%
    12:00 +15°C° 0 mm 2 mps 646 mmHg 41%
    13:00 +16°C° 0 mm 3 mps 646 mmHg 39%
    14:00 +16°C° 0 mm 3 mps 646 mmHg 39%
    15:00 +17°C° 0 mm 3 mps 646 mmHg 39%
    16:00 +17°C° 0 mm 2 mps 646 mmHg 40%
    17:00 +15°C° 0 mm 2 mps 646 mmHg 46%
    18:00 +13°C° 0 mm 1 mps 646 mmHg 53%
    19:00 +11°C° 0 mm 0 mps 646 mmHg 60%
    20:00 +10°C° 0 mm 0 mps 646 mmHg 62%
    21:00 +10°C° 0 mm 0 mps 646 mmHg 64%
    22:00 +9°C° 0 mm 0 mps 646 mmHg 67%
    23:00 +9°C° 0 mm 0 mps 646 mmHg 69%

    21 October, Monday

    Time Temperature Precipitation Wind Pressure Humidity
    00:00 +8°C° 0 mm 0 mps 646 mmHg 70%
    01:00 +8°C° 0 mm 0 mps 646 mmHg 72%
    02:00 +9°C° 0 mm 1 mps 646 mmHg 74%
    03:00 +8°C° 0 mm 1 mps 646 mmHg 75%
    04:00 +8°C° 0 mm 1 mps 646 mmHg 77%
    05:00 +7°C° 0 mm 0 mps 646 mmHg 75%
    06:00 +8°C° 0 mm 0 mps 646 mmHg 74%
    07:00 +8°C° 0 mm 0 mps 647 mmHg 72%
    08:00 +11°C° 0 mm 0 mps 648 mmHg 62%
    09:00 +14°C° 0 mm 1 mps 649 mmHg 52%
    10:00 +16°C° 0 mm 1 mps 649 mmHg 42%
    11:00 +18°C° 0 mm 1 mps 650 mmHg 39%
    12:00 +20°C° 0 mm 1 mps 650 mmHg 35%
    13:00 +21°C° 0 mm 1 mps 650 mmHg 32%
    14:00 +21°C° 0 mm 1 mps 649 mmHg 32%
    15:00 +21°C° 0 mm 1 mps 649 mmHg 32%
    16:00 +21°C° 0 mm 1 mps 649 mmHg 32%
    17:00 +19°C° 0 mm 1 mps 649 mmHg 39%
    18:00 +16°C° 0 mm 1 mps 648 mmHg 46%
    19:00 +13°C° 0 mm 1 mps 648 mmHg 54%
    20:00 +13°C° 0 mm 1 mps 648 mmHg 55%
    21:00 +12°C° 0 mm 1 mps 648 mmHg 56%
    22:00 +12°C° 0 mm 1 mps 648 mmHg 57%
    23:00 +11°C° 0 mm 1 mps 647 mmHg 58%

    22 October, Tuesday

    Time Temperature Precipitation Wind Pressure Humidity
    00:00 +11°C° 0 mm 1 mps 647 mmHg 60%
    01:00 +10°C° 0 mm 1 mps 647 mmHg 61%
    02:00 +10°C° 0 mm 1 mps 647 mmHg 61%
    03:00 +10°C° 0 mm 1 mps 646 mmHg 61%
    04:00 +9°C° 0 mm 1 mps 646 mmHg 61%
    05:00 +10°C° 0 mm 1 mps 646 mmHg 58%
    06:00 +10°C° 0 mm 1 mps 646 mmHg 55%
    07:00 +11°C° 0 mm 1 mps 647 mmHg 51%
    08:00 +14°C° 0 mm 1 mps 647 mmHg 43%
    09:00 +16°C° 0 mm 0 mps 648 mmHg 35%
    10:00 +19°C° 0 mm 0 mps 649 mmHg 26%
    11:00 +22°C° 0 mm 1 mps 649 mmHg 24%
    12:00 +23°C° 0 mm 2 mps 649 mmHg 22%
    13:00 +24°C° 0 mm 2 mps 649 mmHg 20%
    14:00 +22°C° 0 mm 3 mps 648 mmHg 22%
    15:00 +22°C° 0 mm 3 mps 648 mmHg 25%
    16:00 +21°C° 0 mm 3 mps 648 mmHg 27%
    17:00 +19°C° 0 mm 3 mps 647 mmHg 33%
    18:00 +16°C° 0 mm 2 mps 647 mmHg 38%
    19:00 +14°C° 0 mm 1 mps 646 mmHg 44%
    20:00 +14°C° 0 mm 1 mps 646 mmHg 46%
    21:00 +13°C° 0 mm 1 mps 646 mmHg 48%
    22:00 +12°C° 0 mm 1 mps 646 mmHg 50%
    23:00 +12°C° 0 mm 1 mps 646 mmHg 53%

    23 October, Wednesday

    Time Temperature Precipitation Wind Pressure Humidity
    00:00 +11°C° 0 mm 1 mps 646 mmHg 56%
    01:00 +10°C° 0 mm 1 mps 646 mmHg 58%
    02:00 +10°C° 0 mm 1 mps 645 mmHg 62%
    03:00 +9°C° 0 mm 1 mps 645 mmHg 65%
    04:00 +9°C° 0 mm 1 mps 644 mmHg 68%
    05:00 +9°C° 0 mm 1 mps 645 mmHg 67%
    06:00 +9°C° 0 mm 1 mps 645 mmHg 67%
    07:00 +9°C° 0 mm 1 mps 645 mmHg 67%
    08:00 +11°C° 0 mm 1 mps 646 mmHg 59%
    09:00 +13°C° 0 mm 1 mps 646 mmHg 52%
    10:00 +15°C° 0 mm 2 mps 647 mmHg 45%
    11:00 +16°C° 0 mm 2 mps 647 mmHg 42%
    12:00 +17°C° 0 mm 3 mps 647 mmHg 38%
    13:00 +18°C° 0 mm 3 mps 647 mmHg 35%
    14:00 +18°C° 0 mm 3 mps 647 mmHg 35%
    15:00 +18°C° 0 mm 3 mps 646 mmHg 34%
    16:00 +17°C° 0 mm 3 mps 646 mmHg 33%
    17:00 +15°C° 0 mm 2 mps 646 mmHg 37%
    18:00 +14°C° 0 mm 2 mps 646 mmHg 41%
    19:00 +12°C° 0 mm 1 mps 645 mmHg 45%
    20:00 +11°C° 0 mm 1 mps 645 mmHg 44%
    21:00 +10°C° 0 mm 1 mps 646 mmHg 44%
    22:00 +10°C° 0 mm 1 mps 646 mmHg 44%
    23:00 +9°C° 0 mm 1 mps 646 mmHg 44%
    Show more